Date String (YYYY-MM-DD hh:mm:ss) UTC,Instrument flags,Ambient pressure (hPa),Sample flow (lpm),Bypass flow (lpm),Sample temperature (°C),Ambient temperature (°C),ASC tube jacket temperature (°C),LED temperature (°C),Box temperature (°C),Sample RH (%),Span deviation,Mass concentration (μg/m³),Mass concentration (μg/m³),Mass concentration (μg/m³)
DateTimeUTC,F1_M11,P_M11,Q1_M11,Q2_M11,T1_M11,T2_M11,T3_M11,T4_M11,T5_M11,U1_M11,ZSPAN_M11,X0_M11,X2_M11,X1_M11
2023-01-02 14:00:00,,0816.1,4.97,0.00,22.6,21.2,00.0,31.5,24.4,15.9,-000.9,0009.38,0007.37,0007.26
2023-01-02 14:01:00,,0816.1,5.01,0.00,22.6,21.1,00.0,31.5,24.3,16.0,-001.5,0009.36,0007.36,0007.25
2023-01-02 14:02:00,,0816.1,4.97,0.00,22.6,21.1,00.0,31.5,24.3,16.0,-002.0,0009.35,0007.33,0007.22
2023-01-02 14:03:00,,0816.1,4.98,0.00,22.6,21.1,00.0,31.5,24.3,16.0,-001.7,0009.29,0007.30,0007.21
2023-01-02 14:04:00,,0816.0,4.98,0.00,22.6,21.1,00.0,31.5,24.3,16.0,-001.4,0009.28,0007.31,0007.22
2023-01-02 14:05:00,,0816.1,4.99,0.00,22.6,21.4,00.0,31.4,24.4,16.0,-001.1,0009.31,0007.33,0007.23
2023-01-02 14:06:00,,0816.0,5.07,0.00,22.7,22.4,00.0,31.4,24.6,15.9,-000.3,0009.32,0007.35,0007.25
2023-01-02 14:07:00,,0816.0,5.03,0.00,22.8,23.1,00.0,31.4,24.8,15.8,-000.1,0009.35,0007.37,0007.27
2023-01-02 14:08:00,,0816.1,4.97,0.00,22.8,22.9,00.0,31.5,24.9,15.8,-000.1,0009.44,0007.43,0007.31
2023-01-02 14:09:00,,0816.1,4.97,0.00,22.9,22.5,00.0,31.5,24.8,15.7,-000.1,0009.49,0007.46,0007.34
2023-01-02 14:10:00,,0816.1,4.99,0.00,22.8,22.2,00.0,31.6,24.7,15.7,-000.9,0009.54,0007.50,0007.38
2023-01-02 14:11:00,,0816.0,5.08,0.00,22.8,21.9,00.0,31.6,24.6,15.8,-000.8,0009.59,0007.54,0007.42
2023-01-02 14:12:00,,0816.0,5.00,0.00,22.8,21.7,00.0,31.6,24.5,15.8,-000.4,0009.67,0007.59,0007.45
2023-01-02 14:13:00,,0816.0,4.95,0.00,22.8,21.5,00.0,31.6,24.5,15.8,-000.6,0009.72,0007.65,0007.51
2023-01-02 14:14:00,,0816.0,4.96,0.00,22.7,21.4,00.0,31.6,24.5,15.8,-000.3,0009.81,0007.72,0007.56
2023-01-02 14:15:00,,0816.0,5.07,0.00,22.7,21.3,00.0,31.6,24.5,15.8,-000.3,0009.85,0007.76,0007.60
2023-01-02 14:16:00,,0816.0,4.97,0.00,22.7,21.2,00.0,31.6,24.4,15.9,-000.1,0009.90,0007.83,0007.69
2023-01-02 14:17:00,,0816.0,5.02,0.00,22.7,21.2,00.0,31.6,24.4,15.9,0000.0,0009.98,0007.90,0007.77
2023-01-02 14:18:00,,0816.0,5.01,0.00,22.7,21.1,00.0,31.6,24.4,15.9,-000.0,0010.08,0007.97,0007.82
2023-01-02 14:19:00,,0816.0,4.99,0.00,22.6,21.1,00.0,31.5,24.4,15.9,0000.2,0010.06,0008.00,0007.86
2023-01-02 14:20:00,,0816.1,5.00,0.00,22.6,21.1,00.0,31.5,24.3,15.9,0000.2,0010.08,0008.03,0007.90
2023-01-02 14:21:00,,0816.1,4.99,0.00,22.6,21.1,00.0,31.5,24.3,16.0,0000.8,0010.11,0008.06,0007.94
2023-01-02 14:22:00,,0816.1,5.01,0.00,22.7,21.9,00.0,31.5,24.5,15.9,0000.9,0010.13,0008.09,0007.97
2023-01-02 14:23:00,,0816.1,4.99,0.00,22.8,22.9,00.0,31.5,24.8,15.9,0000.8,0010.15,0008.12,0008.02
2023-01-02 14:24:00,,0816.1,5.00,0.00,22.9,23.2,00.0,31.5,24.9,15.8,0001.0,0010.14,0008.14,0008.05
2023-01-02 14:25:00,,0816.0,4.99,0.00,22.9,22.7,00.0,31.6,24.9,15.7,0000.9,0010.14,0008.16,0008.08
2023-01-02 14:26:00,,0816.0,5.01,0.00,22.9,22.4,00.0,31.6,24.8,15.8,0000.5,0010.15,0008.16,0008.09
2023-01-02 14:27:00,,0815.9,5.00,0.00,22.9,22.1,00.0,31.6,24.7,15.8,0000.7,0010.11,0008.12,0008.05
2023-01-02 14:28:00,,0815.9,5.00,0.00,22.9,21.8,00.0,31.6,24.6,15.8,0000.3,0010.08,0008.09,0008.01
2023-01-02 14:29:00,,0815.9,5.00,0.00,22.8,21.6,00.0,31.6,24.6,15.8,0000.6,0009.99,0008.03,0007.98
2023-01-02 14:30:00,,0815.8,5.00,0.00,22.8,21.5,00.0,31.6,24.6,15.8,0000.7,0009.96,0007.99,0007.93
2023-01-02 14:31:00,,0815.8,5.00,0.00,22.8,21.4,00.0,31.6,24.5,15.8,0000.9,0009.94,0007.96,0007.90
2023-01-02 14:32:00,,0815.8,5.00,0.00,22.8,21.3,00.0,31.6,24.5,15.9,0000.6,0009.90,0007.92,0007.86
2023-01-02 14:33:00,,0815.7,5.01,0.00,22.7,21.3,00.0,31.6,24.5,15.9,0000.7,0009.86,0007.90,0007.84
2023-01-02 14:34:00,,0815.7,5.01,0.00,22.7,21.2,00.0,31.6,24.5,15.9,0000.7,0009.80,0007.84,0007.78
2023-01-02 14:35:00,,0815.9,4.99,0.00,22.7,21.2,00.0,31.6,24.5,16.0,0001.7,0009.79,0007.80,0007.74
2023-01-02 14:36:00,,0816.0,5.00,0.00,22.7,21.1,00.0,31.6,24.4,16.0,0001.3,0009.77,0007.77,0007.70
2023-01-02 14:37:00,,0816.0,5.00,0.00,22.7,21.1,00.0,31.6,24.4,16.0,0001.5,0009.74,0007.75,0007.69
2023-01-02 14:38:00,,0816.0,5.00,0.00,22.7,21.1,00.0,31.6,24.4,16.1,0000.9,0009.72,0007.74,0007.69
2023-01-02 14:39:00,,0815.9,5.01,0.00,22.7,21.4,00.0,31.5,24.4,16.1,0000.3,0009.70,0007.74,0007.68
2023-01-02 14:40:00,,0815.9,5.00,0.00,22.8,22.4,00.0,31.5,24.7,16.0,0000.0,0009.70,0007.75,0007.69
2023-01-02 14:41:00,,0815.9,5.00,0.00,22.9,23.2,00.0,31.5,24.9,15.9,0000.0,0009.68,0007.75,0007.71
2023-01-02 14:42:00,,0815.8,5.00,0.00,22.9,23.1,00.0,31.6,24.9,15.9,0000.0,0009.69,0007.73,0007.69
2023-01-02 14:43:00,,0815.9,4.99,0.00,23.0,22.7,00.0,31.6,24.9,15.9,0000.0,0009.74,0007.71,0007.66
2023-01-02 14:44:00,,0815.9,5.01,0.00,23.0,22.3,00.0,31.7,24.8,15.9,0000.0,0009.75,0007.70,0007.64
2023-01-02 14:45:00,,0816.0,5.00,0.00,22.9,22.0,00.0,31.7,24.7,15.9,0000.0,0009.75,0007.71,0007.65
2023-01-02 14:46:00,,0816.0,5.00,0.00,22.9,21.8,00.0,31.7,24.7,15.9,0000.0,0009.75,0007.74,0007.68
2023-01-02 14:47:00,,0816.0,5.00,0.00,22.9,21.7,00.0,31.7,24.6,16.0,0000.0,0009.65,0007.70,0007.65
2023-01-02 14:48:00,,0816.0,5.00,0.00,22.9,21.5,00.0,31.7,24.6,16.0,0000.0,0009.60,0007.66,0007.60
2023-01-02 14:49:00,,0815.9,5.00,0.00,22.8,21.4,00.0,31.7,24.6,16.0,0000.0,0009.53,0007.59,0007.53
2023-01-02 14:50:00,,0815.9,5.00,0.00,22.8,21.3,00.0,31.7,24.5,16.1,0000.0,0009.44,0007.52,0007.46
2023-01-02 14:51:00,,0815.8,5.01,0.00,22.8,21.3,00.0,31.7,24.5,16.1,0000.0,0009.34,0007.43,0007.38
2023-01-02 14:52:00,,0815.8,5.00,0.00,22.8,21.2,00.0,31.7,24.5,16.1,0000.0,0009.67,0007.34,0007.29
2023-01-02 14:53:00,,0815.8,4.99,0.00,22.7,21.2,00.0,31.6,24.4,16.1,-000.5,0010.18,0007.27,0007.22
2023-01-02 14:54:00,,0815.9,4.99,0.00,22.7,21.1,00.0,31.6,24.4,16.1,-000.8,0010.31,0007.20,0007.16
2023-01-02 14:55:00,,0815.9,5.00,0.00,22.7,21.1,00.0,31.6,24.4,16.2,-001.5,0010.26,0007.14,0007.09
2023-01-02 14:56:00,,0815.9,4.99,0.00,22.7,21.1,00.0,31.6,24.4,16.3,-001.7,0010.21,0007.09,0007.04
2023-01-02 14:57:00,,0815.8,5.01,0.00,22.7,21.7,00.0,31.6,24.5,17.1,-001.8,0010.11,0007.01,0006.98
2023-01-02 14:58:00,,0815.8,5.00,0.00,22.8,22.7,00.0,31.5,24.8,16.5,-001.7,0010.06,0006.97,0006.94
2023-01-02 14:59:00,,0815.8,5.00,0.00,22.9,23.3,00.0,31.6,24.9,16.2,-001.5,0009.99,0006.92,0006.89
